GEFSSGP_500_meanwind_216.txt.gz
Wind_Speed
3 3 3 3 3 3 4 4 4 4 4 5 4 4 3 3 3 3 3 3 4 5 5 5 5 6 6 7 7 6 6 6 5 5 5 6 6 6 6 6 6 6 7 7 7 7 7 7 8
3 3 3 3 3 4 4 4 4 4 4 5 5 5 4 4 4 4 4 4 5 5 6 6 6 6 6 6 6 6 6 6 6 6 6 7 7 7 7 7 7 7 7 7 7 8 8 8 8
3 3 4 4 4 4 4 4 4 5 5 5 5 5 5 5 5 5 5 5 5 6 6 6 6 6 6 6 6 5 6 6 7 7 7 7 8 8 8 9 8 8 8 8 8 8 9 9 9
3 4 4 3 4 4 5 5 4 5 5 6 6 6 6 5 6 6 6 6 6 6 7 7 7 7 7 6 6 6 6 7 7 8 8 8 8 8 9 9 9 9 9 8 8 8 9 9 10
4 4 4 4 4 4 5 5 5 5 6 6 6 6 6 6 6 7 7 7 6 7 7 7 7 7 7 7 7 7 7 7 8 8 8 8 8 9 9 9 9 10 10 9 9 9 9 10 10
4 4 4 4 4 5 5 5 5 6 6 6 6 7 7 7 8 8 7 7 7 7 7 7 7 7 7 7 7 8 8 8 8 9 9 9 9 9 10 10 10 10 11 10 11 11 10 10 10
5 4 4 4 5 5 5 5 6 7 7 7 7 7 7 8 8 9 9 8 8 8 8 7 7 7 7 7 7 8 8 8 9 9 9 9 9 9 9 10 10 10 10 11 11 10 10 10 10
5 5 5 5 6 5 5 6 7 7 7 7 7 7 8 8 9 9 9 9 8 8 7 7 7 7 7 7 8 8 8 9 9 9 9 9 9 9 9 9 9 9 10 10 10 9 9 9 10
5 5 5 6 6 6 6 7 7 7 7 7 8 8 8 8 9 10 10 9 9 8 7 7 7 6 7 8 8 8 8 9 9 9 10 10 10 10 9 9 9 9 9 9 10 10 10 10 9
6 6 6 7 7 7 7 8 7 7 7 8 9 9 9 9 10 10 10 10 9 9 8 7 7 6 7 7 8 8 9 9 9 10 10 10 10 10 10 10 10 9 9 9 10 11 11 11 10
7 7 8 8 8 8 8 8 8 8 8 9 9 10 9 9 10 10 10 10 10 9 8 7 7 6 6 7 8 9 9 9 9 9 9 10 10 10 10 10 10 10 9 9 9 9 10 10 9
8 8 8 9 9 9 9 9 8 8 9 9 9 10 10 10 10 10 10 10 9 8 8 8 8 8 8 8 9 9 9 9 9 9 9 9 9 9 9 9 10 10 9 9 9 9 9 9 9
9 9 9 9 9 10 10 9 9 9 9 9 9 10 10 10 10 10 9 9 9 8 8 8 9 9 9 9 9 9 9 9 9 8 9 9 9 8 8 8 8 9 9 9 9 9 9 9 10
9 10 10 10 10 10 10 10 10 10 10 10 10 9 9 9 9 9 9 9 9 8 8 8 9 9 9 9 9 9 9 8 8 8 8 8 8 8 7 7 8 8 8 7 8 9 9 9 9
10 10 10 10 11 11 11 10 11 10 11 11 10 8 8 9 9 9 9 9 9 8 8 8 8 8 8 9 9 9 8 8 8 8 8 8 8 8 7 6 6 7 7 7 8 8 8 8 8
12 11 11 11 11 12 11 11 11 11 11 11 9 8 8 8 9 9 9 9 9 9 9 8 8 8 9 9 9 8 8 8 7 7 8 7 7 7 7 7 6 7 7 7 7 7 7 7 7
12 12 11 11 12 12 12 11 11 11 11 11 10 9 8 9 9 9 9 9 8 9 9 9 9 8 9 9 8 8 8 8 7 7 7 6 6 6 6 6 7 7 7 7 7 6 6 6 6
13 12 12 12 12 12 12 12 11 11 11 11 10 10 10 10 9 9 9 9 9 9 9 9 8 8 8 9 9 8 8 7 6 6 6 6 6 6 6 6 6 6 7 7 6 6 6 6 6
14 13 13 13 13 13 12 12 11 11 11 11 11 11 11 10 10 10 9 9 10 9 9 9 9 9 8 8 8 7 6 6 6 5 6 6 5 5 6 6 6 6 5 5 5 5 6 6 6
14 14 14 14 14 14 13 12 12 12 11 11 11 11 11 10 10 10 9 9 10 9 9 9 9 9 8 7 7 7 6 5 5 5 5 6 5 5 6 6 6 5 5 4 4 5 5 5 5
14 15 15 15 14 14 15 14 13 13 13 12 12 12 11 11 10 10 10 9 9 9 9 9 9 9 8 7 7 7 6 6 5 5 5 5 6 6 7 6 6 6 5 5 5 5 5 5 5
15 15 16 15 15 16 16 15 13 13 13 13 12 12 12 12 11 10 10 9 9 9 10 10 9 9 8 7 7 7 6 6 6 6 6 6 6 6 7 7 7 7 6 6 6 5 5 5 5
16 16 17 17 17 17 17 17 14 14 14 14 13 13 13 13 12 11 10 10 9 9 10 10 9 9 8 7 7 7 7 6 6 7 6 6 7 7 8 8 8 8 7 7 6 6 6 6 5
16 17 18 18 18 18 17 17 15 15 15 15 14 14 13 13 13 12 11 11 10 10 10 10 10 9 8 8 7 7 7 6 6 7 7 7 7 8 8 8 7 8 7 7 7 7 6 6 6
17 18 19 19 19 18 17 17 16 16 15 15 15 14 14 13 13 13 12 12 11 11 10 10 10 9 9 8 8 8 7 7 7 7 7 7 7 7 8 8 8 8 7 7 7 7 7 6 6
18 19 19 19 19 18 17 16 15 16 16 16 16 15 15 14 14 14 13 12 12 12 11 10 11 10 9 9 9 8 8 8 7 7 8 8 8 8 8 8 8 8 8 7 7 7 6 6 6
18 18 19 19 19 18 17 16 15 15 16 16 16 16 15 15 14 14 13 13 13 12 11 10 10 10 10 9 9 9 9 8 8 8 8 8 8 8 8 8 8 8 8 8 7 7 7 7 7
19 18 18 19 19 19 17 16 15 16 17 17 17 17 16 15 15 14 14 14 13 13 12 11 10 10 10 10 9 10 9 9 8 8 8 8 7 8 7 7 7 8 7 8 7 7 7 7 6
19 19 19 20 20 20 19 17 16 17 17 18 18 17 17 16 15 16 15 15 14 14 13 12 11 11 10 10 10 9 9 10 9 9 8 8 8 8 7 8 8 8 8 8 8 8 7 7 7
20 20 20 21 21 21 21 18 18 18 18 19 19 19 18 17 16 16 16 16 15 15 14 13 12 12 11 10 10 10 10 10 10 9 9 9 9 8 8 8 8 9 8 8 8 8 8 8 7

GEFSSGP_500_meanwind_222.txt.gz
Wind_Speed
4 4 4 4 4 4 3 3 3 3 3 3 3 2 2 2 2 3 3 4 4 5 5 5 5 5 5 5 5 5 5 6 6 6 6 6 6 6 6 5 5 5 5 5 6 6 6 7 7
3 3 3 3 3 4 3 3 3 3 3 3 3 3 2 3 3 3 4 4 5 5 5 5 5 6 6 6 6 6 6 7 6 6 6 6 7 7 7 7 7 7 6 7 6 6 7 8 8
2 2 3 3 3 3 4 4 4 4 4 4 4 4 4 4 3 3 4 5 5 5 5 6 6 7 7 7 7 7 8 7 7 7 7 6 7 8 8 8 8 8 8 7 7 7 7 8 8
2 2 2 2 3 3 4 4 4 4 5 5 5 5 5 4 4 4 5 5 6 6 7 7 7 8 8 8 8 8 8 8 8 8 7 7 7 8 9 9 9 9 9 9 8 8 8 9 9
2 2 2 3 3 3 4 4 4 4 5 5 5 6 6 5 5 5 5 5 6 6 7 7 7 7 7 8 8 8 8 8 9 8 8 8 8 9 9 10 10 10 10 10 10 10 10 10 9
1 2 2 3 3 3 4 4 4 4 5 5 6 6 6 6 5 5 5 6 6 7 7 7 8 8 8 8 8 8 8 8 9 9 8 8 9 9 9 10 11 10 10 11 11 11 10 10 10
1 2 2 3 3 4 4 5 5 5 6 6 6 6 6 7 7 6 6 6 7 7 7 7 8 8 8 8 8 9 9 9 9 9 9 9 9 9 9 10 11 10 11 11 11 10 10 10 9
2 2 2 3 4 4 4 5 5 5 6 6 6 6 7 7 8 8 8 7 7 7 7 8 8 8 8 9 9 9 9 9 9 9 10 9 9 8 9 9 9 9 10 10 10 10 11 10 10
2 2 3 4 4 4 5 5 5 5 6 7 7 7 7 8 8 8 8 8 8 8 7 8 8 8 8 9 9 10 9 9 9 10 10 9 9 9 9 9 9 10 10 10 10 11 11 11 11
3 3 4 4 5 5 5 6 6 6 6 7 7 8 8 8 8 8 9 8 8 8 8 8 8 7 8 8 9 9 9 10 10 10 10 9 9 9 9 9 9 10 10 10 10 11 11 11 11
5 4 4 5 5 5 6 6 6 7 7 8 8 8 8 8 8 8 9 9 9 9 8 8 7 7 7 7 8 9 9 10 10 10 10 10 10 9 9 9 10 10 10 10 10 11 11 11 11
6 6 5 5 5 6 6 7 7 7 8 9 9 9 8 8 8 9 9 9 8 8 8 8 7 7 7 7 8 8 9 9 10 10 9 9 9 9 9 9 10 10 10 10 10 10 10 10 10
8 7 6 6 6 7 7 7 7 7 8 9 9 9 8 8 9 9 9 9 8 8 7 8 7 7 8 7 7 8 9 9 9 9 9 9 9 9 9 9 9 9 10 10 9 9 9 9 9
8 8 7 7 7 8 8 8 8 8 8 9 9 8 8 8 9 9 8 8 8 8 7 8 7 8 8 8 7 8 8 8 8 8 8 9 9 9 9 9 9 9 9 9 9 9 8 9 9
9 8 8 8 8 8 9 9 9 9 10 10 9 9 9 9 9 9 8 8 8 8 8 8 8 8 8 8 8 8 8 8 8 8 8 8 8 8 8 9 9 9 9 9 10 9 9 9 9
10 9 10 9 9 9 10 10 10 10 10 10 10 9 9 9 9 9 9 8 8 8 8 8 9 9 9 9 8 9 9 9 8 8 8 8 8 8 8 9 9 9 8 8 9 9 9 9 9
11 10 10 10 10 10 10 10 10 10 10 10 10 9 9 9 9 9 9 8 8 8 8 9 9 9 10 10 9 9 8 9 8 8 8 8 8 7 8 8 8 8 8 8 8 9 9 9 9
12 12 12 12 11 11 11 11 10 10 11 10 10 10 9 9 9 9 9 9 8 8 8 8 8 9 9 9 9 9 9 8 8 7 7 7 7 7 7 7 7 8 8 8 8 8 9 9 9
13 13 13 13 12 12 12 12 12 11 11 11 10 10 9 9 10 10 9 9 9 9 8 8 8 8 8 8 9 9 9 8 8 7 7 6 6 7 7 7 7 8 7 8 8 8 9 8 8
13 13 13 14 13 13 13 13 13 12 12 12 11 10 9 10 10 10 10 10 10 9 9 9 9 9 9 9 8 8 8 7 7 7 7 7 7 7 6 6 7 7 8 7 7 7 7 7 7
14 14 14 14 14 14 14 14 14 13 13 12 12 11 10 10 10 10 10 10 10 9 9 9 9 9 9 9 8 8 7 7 7 7 8 7 7 7 7 7 8 8 8 8 7 6 6 6 6
15 15 14 14 14 15 14 14 14 14 13 13 13 13 12 11 11 11 10 10 10 10 10 10 10 9 9 9 8 8 7 7 6 6 7 8 8 9 9 9 8 8 9 8 7 6 6 6 6
15 15 15 15 15 15 15 15 14 14 14 14 14 14 13 13 12 11 11 11 11 11 11 11 10 10 9 9 8 8 8 7 7 7 7 8 8 8 8 9 8 8 8 8 7 7 7 7 7
15 15 16 16 16 16 15 15 15 14 14 14 14 14 14 14 13 12 12 11 12 12 11 11 11 10 10 9 8 8 8 8 8 8 8 8 8 8 8 8 8 8 9 9 8 7 7 6 6
16 16 16 16 16 16 15 16 15 15 14 14 14 14 14 14 13 14 13 13 12 12 12 12 11 11 11 10 9 8 8 8 8 8 8 8 9 9 8 8 8 8 9 9 8 8 7 7 6
16 16 16 16 16 16 16 15 15 14 15 14 14 14 14 14 14 14 14 14 13 13 13 12 12 11 11 11 10 9 9 9 9 9 9 8 8 8 8 8 8 8 8 8 8 8 8 8 7
16 17 17 17 17 16 16 15 14 14 15 15 14 14 15 15 15 15 15 15 14 14 14 13 13 12 12 12 11 11 10 10 10 9 9 9 9 9 9 9 8 8 8 8 8 8 8 8 8
17 17 17 17 17 17 16 15 15 15 15 15 16 15 16 16 16 16 16 16 16 15 15 14 14 13 13 13 13 12 11 11 11 11 10 10 9 10 9 9 9 9 9 9 9 9 9 9 9
18 18 18 18 18 17 17 17 16 16 15 16 16 16 17 18 17 17 17 17 17 17 16 16 15 14 14 14 13 12 12 12 12 12 11 10 9 9 10 10 9 10 10 10 10 9 9 9 9
19 19 19 19 19 19 18 18 17 16 17 17 18 18 18 18 19 18 18 18 18 18 18 17 16 16 15 15 14 14 13 13 12 12 12 11 10 10 10 10 10 10 10 10 10 10 9 9 9

GEFSSGP_500_meanwind_228.txt.gz
Wind_Speed
4 4 3 3 2 3 4 5 5 5 5 5 5 5 5 5 6 6 6 6 7 7 7 7 8 8 8 8 8 8 7 7 7 7 8 8 8 8 8 7 7 7 7 7 7 7 6 7 7
2 2 2 2 2 3 4 5 5 5 6 6 6 6 6 6 6 7 7 8 8 8 8 8 8 9 9 9 9 9 9 8 8 8 9 9 9 9 9 8 7 7 8 7 8 7 7 7 7
1 2 2 2 3 4 4 5 5 6 6 6 7 7 7 7 7 7 8 8 8 8 9 9 9 9 9 10 10 9 9 9 9 10 9 9 9 9 9 9 9 9 9 8 8 9 8 8 8
2 2 2 2 3 4 4 5 5 6 7 7 7 8 8 8 7 7 8 8 8 9 9 9 9 9 10 10 9 9 9 10 10 10 10 10 9 9 9 9 10 10 10 9 9 9 9 9 9
2 2 2 2 3 4 5 5 6 6 7 8 8 8 8 8 8 8 8 8 8 8 9 9 9 9 10 10 9 9 9 10 10 10 10 10 10 9 9 10 10 10 10 10 9 10 10 10 10
3 2 2 3 3 5 6 6 7 7 8 8 8 9 8 9 9 8 8 8 8 8 8 8 9 9 9 9 9 10 10 10 10 10 10 10 10 10 10 10 11 10 10 10 10 10 11 11 10
3 3 3 4 4 5 6 6 7 7 8 8 9 10 9 9 10 9 9 9 9 9 9 9 9 9 9 9 9 10 10 10 10 11 10 10 10 10 10 11 11 11 10 9 10 10 11 11 10
4 4 4 4 5 6 6 6 7 7 8 9 10 10 10 10 11 10 9 9 9 9 9 10 9 9 9 9 10 10 11 10 11 10 10 9 9 9 10 10 10 10 10 10 10 10 10 10 11
5 5 5 5 6 7 7 7 7 8 8 9 9 10 11 11 11 10 10 10 9 9 9 10 9 8 9 9 10 10 10 10 11 10 10 9 9 9 9 9 9 10 10 10 10 10 11 11 11
5 5 5 6 6 7 7 8 8 8 9 9 10 10 11 11 10 10 11 11 10 9 10 9 10 9 9 10 10 10 9 10 10 10 10 9 9 9 9 9 9 9 10 10 10 10 11 12 12
7 6 6 6 7 7 7 8 9 9 9 10 10 11 11 11 11 11 11 11 10 10 10 9 9 9 10 10 10 10 10 10 10 10 10 9 9 9 10 10 10 9 9 9 10 11 11 11 12
8 7 7 7 7 8 8 9 9 10 10 11 11 11 11 11 12 11 11 11 11 10 10 10 10 10 10 10 10 10 10 10 10 10 9 9 9 9 10 9 9 9 9 9 9 10 10 10 11
9 9 8 8 8 8 8 9 10 11 11 12 12 12 12 11 12 11 11 11 10 10 10 10 10 10 10 10 10 10 10 10 10 10 9 9 9 9 10 10 10 9 9 9 9 9 10 10 10
10 10 10 9 9 9 10 11 11 11 12 12 12 12 12 12 12 11 11 10 10 10 10 10 10 10 10 10 10 10 10 10 11 10 10 9 9 10 10 10 9 9 9 9 9 10 9 9 9
10 10 10 10 10 10 11 11 11 11 12 12 12 12 12 12 12 11 11 10 10 10 9 9 9 10 10 9 9 10 10 10 11 11 11 10 9 9 9 9 9 9 9 9 9 9 9 8 8
11 11 11 10 11 11 12 11 11 11 12 12 12 11 11 12 12 12 11 11 10 9 9 9 9 10 10 11 10 10 9 9 9 10 10 9 9 9 9 9 9 9 9 8 9 9 9 9 9
11 11 12 11 11 12 12 12 12 12 12 12 12 12 12 12 12 12 12 11 10 10 10 10 10 10 11 11 11 11 10 9 9 9 9 9 9 9 9 9 9 8 9 8 8 8 9 9 9
12 13 13 14 13 14 14 14 14 13 13 13 13 12 12 12 12 12 12 11 11 11 11 10 10 11 12 12 12 11 10 10 9 9 8 9 9 8 8 8 8 8 8 8 8 8 8 8 9
14 15 15 16 15 15 15 15 15 15 15 14 13 13 13 12 12 12 12 11 11 11 11 11 11 11 12 11 11 11 10 10 9 9 9 8 8 8 8 8 8 8 8 8 8 8 8 8 8
15 16 16 17 16 16 15 16 16 15 15 15 14 14 14 13 13 12 12 11 11 11 11 11 12 12 12 11 10 10 10 10 9 9 9 8 8 8 8 9 9 9 9 9 8 8 8 8 8
15 16 16 17 16 16 16 16 16 16 15 15 15 15 14 13 13 13 12 12 12 12 12 12 12 12 12 12 11 11 10 9 8 8 8 8 8 8 8 8 9 9 9 8 8 8 7 7 7
15 15 15 16 16 16 16 17 17 17 16 16 16 16 15 14 14 13 13 12 13 13 13 12 12 12 12 12 12 11 10 9 9 9 8 9 9 9 8 8 8 8 8 8 8 7 7 7 7
15 14 14 15 15 15 16 17 17 18 18 17 16 16 16 15 14 14 13 13 13 13 13 13 13 13 12 12 12 10 10 10 9 9 9 9 8 8 8 8 8 8 8 8 8 8 8 7 7
14 14 13 14 14 15 15 16 16 18 18 18 17 17 16 16 15 15 14 14 14 13 14 14 13 13 13 13 12 11 10 10 9 9 9 9 9 8 8 8 9 9 8 8 8 8 7 7 8
14 13 13 13 13 14 15 16 17 19 19 19 18 18 17 16 16 16 15 15 15 14 14 14 14 14 14 13 13 12 11 11 10 9 9 9 9 9 9 9 9 9 9 9 8 8 8 7 7
15 15 14 13 12 14 17 18 19 18 18 19 18 18 18 18 17 17 17 16 16 15 15 15 14 14 14 14 13 13 12 12 11 10 10 10 10 9 9 9 9 9 8 8 9 9 9 8 8
16 16 16 16 16 17 17 19 21 20 19 18 18 19 18 18 18 18 18 17 17 16 16 16 15 15 15 14 14 13 13 13 12 12 12 11 11 10 10 10 9 9 9 9 9 9 9 8 8
17 16 16 17 17 17 17 17 21 21 20 19 18 18 18 18 19 18 18 18 18 18 17 17 17 17 16 16 15 14 14 14 13 13 12 12 12 12 11 11 10 9 9 9 8 9 9 9 9
17 17 18 18 18 17 17 18 22 23 22 21 20 20 19 19 19 19 19 19 19 19 19 19 19 18 18 17 16 16 15 14 14 13 13 12 12 11 10 10 11 11 10 10 10 10 9 9 9
19 19 19 19 19 19 20 22 23 24 24 23 22 21 21 21 21 21 20 20 20 20 20 20 20 19 19 18 18 17 16 15 15 14 14 13 12 11 10 11 11 11 11 10 10 10 10 10 9

GEFSSGP_500_meanwind_234.txt.gz
Wind_Speed
2 3 2 2 2 2 3 3 4 4 4 4 4 4 4 3 3 4 4 4 5 5 5 5 6 6 6 7 7 8 8 8 8 9 9 9 9 10 10 10 9 9 10 10 9 9 8 7 8
2 2 2 2 2 2 3 4 4 4 5 5 5 5 4 4 4 4 4 5 6 6 6 6 7 7 8 8 8 8 9 9 9 9 10 10 10 10 11 11 10 11 11 10 9 9 9 9 8
2 2 2 2 2 2 3 4 4 5 5 5 5 5 5 4 5 5 5 5 6 6 6 7 7 8 8 9 9 9 9 10 10 10 10 10 10 10 11 11 11 11 12 11 10 10 10 9 9
2 2 3 3 2 2 3 4 5 5 5 5 6 6 6 5 5 6 6 6 6 6 7 7 7 8 9 9 10 10 10 10 10 10 10 10 10 10 10 10 11 11 10 10 10 10 10 10 9
2 3 3 3 2 3 3 4 5 5 6 6 6 6 6 6 6 6 7 6 7 7 8 7 8 8 8 9 9 9 10 9 10 10 11 10 10 10 10 10 11 10 10 10 10 10 10 10 10
2 3 3 3 3 3 4 5 5 5 6 6 7 7 7 8 7 7 7 7 7 7 7 7 7 7 8 8 8 8 9 9 9 9 9 9 9 9 10 10 11 11 10 10 10 10 10 10 10
3 4 3 4 4 4 5 6 6 6 6 6 7 7 8 8 8 8 7 7 7 7 7 7 7 7 8 8 8 8 8 8 9 9 9 9 9 9 9 9 10 10 10 10 10 10 10 10 10
5 4 3 3 3 4 5 6 6 6 6 7 7 8 8 9 8 8 7 7 7 7 7 7 7 8 8 8 8 8 8 8 8 9 8 8 8 8 9 9 9 9 10 10 10 10 10 10 9
5 5 4 3 4 5 6 6 6 6 6 7 8 8 8 9 8 8 8 8 7 7 7 7 6 7 8 8 8 8 8 8 8 9 8 8 8 8 8 9 9 9 10 10 10 11 11 10 9
6 5 5 4 5 5 5 6 6 6 7 8 7 7 8 9 9 9 8 8 7 7 7 7 6 7 7 7 8 8 8 8 8 8 8 8 8 8 8 9 9 9 10 10 10 10 10 10 10
7 6 5 5 5 5 6 6 7 7 7 8 8 8 8 9 9 9 9 9 8 8 8 7 7 8 7 6 7 8 8 8 8 8 8 7 7 7 7 8 9 9 9 9 9 9 9 10 10
7 6 6 5 6 6 6 6 7 7 8 9 9 9 9 9 9 9 9 9 8 8 8 8 7 7 8 7 7 7 7 8 8 8 8 8 7 7 7 8 8 8 8 8 8 8 8 8 9
8 7 7 6 6 6 6 6 7 8 8 8 9 9 9 10 9 10 9 9 9 8 8 7 7 7 7 7 7 8 7 7 8 8 8 8 7 7 7 8 8 8 8 7 7 7 7 8 8
9 9 8 8 8 8 8 8 8 8 8 8 9 9 9 9 9 10 9 9 9 8 8 8 8 7 7 8 8 8 7 7 7 7 7 7 7 7 7 7 8 7 7 7 7 7 7 7 8
10 10 9 9 9 8 8 8 8 9 9 9 9 10 9 9 10 10 9 9 9 8 8 8 8 8 8 8 8 8 8 7 7 7 7 7 7 6 6 7 7 7 7 6 6 7 7 7 7
11 11 11 10 9 9 9 9 9 9 9 9 9 9 10 10 10 10 9 8 8 7 8 7 8 8 8 8 9 8 8 7 6 6 7 7 7 6 6 6 7 6 7 7 7 7 8 7 7
12 11 11 11 10 10 10 10 10 10 9 9 9 9 9 10 9 10 9 8 7 7 7 7 8 8 8 8 9 8 8 7 6 6 6 6 7 6 6 6 7 7 8 8 8 8 8 8 7
13 12 12 11 12 12 11 10 11 11 10 9 9 9 9 10 10 10 9 9 8 7 8 8 8 8 9 9 8 7 7 6 6 6 6 6 6 6 6 6 6 7 7 7 7 8 7 7 7
14 14 13 12 13 13 12 11 12 12 11 10 10 10 10 10 10 10 10 9 8 8 8 8 9 9 9 9 8 7 7 6 6 6 6 7 7 7 7 7 7 7 7 7 7 7 7 7 7
14 15 14 13 13 14 13 12 12 13 12 11 11 10 10 10 10 10 10 10 9 9 9 9 9 9 9 9 8 8 7 7 5 5 6 6 6 6 6 6 6 7 7 7 7 7 7 7 7
14 14 14 14 14 14 13 12 12 12 12 12 12 11 11 11 10 10 10 9 9 9 9 9 9 9 8 8 8 8 8 7 6 6 6 6 5 6 6 6 7 7 7 7 7 7 7 7 7
14 14 14 14 14 13 13 12 11 12 12 12 12 12 12 11 11 10 10 10 10 10 10 10 10 10 9 9 9 8 8 7 7 6 6 6 6 6 6 7 7 7 6 7 7 7 6 6 6
14 13 14 13 13 13 12 13 10 10 10 11 11 12 12 12 11 11 11 11 11 11 11 11 11 11 10 10 10 9 8 8 7 7 6 6 6 6 7 7 7 8 8 7 7 6 6 6 6
14 13 13 13 13 13 12 13 11 10 10 10 11 11 12 12 11 11 11 12 12 12 12 12 12 12 12 11 10 10 9 9 9 8 8 8 7 7 8 8 9 9 9 8 7 7 7 7 7
14 14 14 14 13 13 13 14 13 11 11 11 11 11 11 12 11 11 12 13 13 13 13 13 13 13 13 12 12 11 11 10 10 10 9 9 9 9 9 9 9 9 9 9 8 7 7 7 7
15 15 15 15 14 14 14 14 13 13 13 12 12 12 12 12 12 12 13 14 14 14 14 14 14 14 14 13 13 13 12 11 11 11 10 10 9 9 9 9 10 10 10 10 9 8 8 8 7
16 16 16 16 16 15 15 15 14 14 14 14 14 14 14 14 14 14 14 15 15 15 15 16 16 15 15 15 14 14 13 12 11 11 11 11 10 9 9 10 10 10 10 10 10 10 9 8 8
16 16 16 17 17 17 16 16 16 16 16 17 17 16 16 15 15 15 16 16 16 17 17 17 17 17 17 16 15 14 14 13 13 13 12 12 11 11 10 10 10 10 10 11 10 10 10 9 9
17 17 18 18 19 19 18 18 17 17 17 17 18 17 17 16 16 16 17 17 17 17 17 18 18 17 17 17 16 16 16 15 14 14 14 13 13 12 12 11 11 11 10 11 11 11 10 10 9
18 18 19 19 20 20 20 19 19 19 18 19 18 18 18 18 17 17 18 18 18 18 18 18 18 18 18 18 18 17 17 17 16 15 15 15 14 13 13 13 12 12 12 11 11 11 11 11 10